Location: Ladrillo (historical)
(32.8195°N, 117.2231°W)
Time: 03:44:03
(UTC+00:00)

ARGOS Delta rocket - Pass Details

Date: 29 October 2020
Orbit: 636 x 837 km, 96.5° (Epoch: 26 November)

Event Time Altitude Azimuth Distance (km) Brightness Sun altitude
Rises 12:38:47 0° 10° (N) 3,369 7.4 -18.6°
Reaches altitude 10° 12:41:08 10° 11° (N) 2,444 6.7 -18.1°
Maximum altitude 12:46:38 89° 103° (ESE) 841 4.2 -16.9°
Drops below altitude 10° 12:52:04 10° 191° (S) 2,426 6.5 -15.8°
Sets 12:54:24 0° 191° (SSW) 3,343 7.3 -15.3°
